TimeEDT,TemperatureF,Dew PointF,Humidity,Sea Level PressureIn,VisibilityMPH,Wind Direction,Wind SpeedMPH,Gust SpeedMPH,PrecipitationIn,Events,Conditions,WindDirDegrees,DateUTC
12:15 AM,29.3,19.8,68,30.15,10.0,Calm,Calm,-,N/A,,Clear,0,2013-04-02 04:15:00
12:35 AM,28.6,20.8,73,30.15,10.0,Calm,Calm,-,N/A,,Clear,0,2013-04-02 04:35:00
12:55 AM,28.6,20.3,71,30.15,10.0,Calm,Calm,-,N/A,,Clear,0,2013-04-02 04:55:00
1:15 AM,28.4,19.6,70,30.15,10.0,Calm,Calm,-,N/A,,Clear,0,2013-04-02 05:15:00
1:35 AM,27.9,19.6,71,30.15,10.0,Calm,Calm,-,N/A,,Clear,0,2013-04-02 05:35:00
1:55 AM,26.8,20.8,78,30.15,10.0,Calm,Calm,-,N/A,,Clear,0,2013-04-02 05:55:00
2:15 AM,25.7,21.2,83,30.15,10.0,Calm,Calm,-,N/A,,Clear,0,2013-04-02 06:15:00
2:35 AM,25.7,21.6,84,30.16,10.0,Calm,Calm,-,N/A,,Clear,0,2013-04-02 06:35:00
2:55 AM,25.3,21.2,84,30.16,10.0,Calm,Calm,-,N/A,,Clear,0,2013-04-02 06:55:00
3:15 AM,25.7,20.8,82,30.15,10.0,Calm,Calm,-,N/A,,Clear,0,2013-04-02 07:15:00
3:35 AM,25.5,20.5,81,30.15,10.0,Calm,Calm,-,N/A,,Clear,0,2013-04-02 07:35:00
3:55 AM,25.3,21.0,84,30.15,10.0,Calm,Calm,-,N/A,,Clear,0,2013-04-02 07:55:00
4:15 AM,25.0,20.8,84,30.15,10.0,West,3.5,-,N/A,,Clear,260,2013-04-02 08:15:00
4:35 AM,24.8,20.8,85,30.16,10.0,West,4.6,-,N/A,,Clear,260,2013-04-02 08:35:00
4:55 AM,25.2,20.5,82,30.16,10.0,WNW,4.6,-,N/A,,Clear,290,2013-04-02 08:55:00
5:15 AM,25.3,19.6,79,30.16,10.0,WNW,4.6,-,N/A,,Clear,290,2013-04-02 09:15:00
5:35 AM,25.2,19.8,80,30.17,10.0,West,4.6,-,N/A,,Clear,280,2013-04-02 09:35:00
5:55 AM,25.0,19.6,80,30.18,10.0,NW,3.5,-,N/A,,Clear,320,2013-04-02 09:55:00
6:15 AM,24.8,18.7,78,30.19,10.0,WNW,4.6,-,N/A,,Clear,300,2013-04-02 10:15:00
6:35 AM,25.0,18.5,76,30.19,10.0,WNW,4.6,-,N/A,,Clear,300,2013-04-02 10:35:00
6:55 AM,24.8,18.5,77,30.20,10.0,WNW,4.6,-,N/A,,Clear,300,2013-04-02 10:55:00
7:15 AM,24.3,18.5,79,30.21,10.0,WNW,3.5,-,N/A,,Clear,300,2013-04-02 11:15:00
7:35 AM,23.9,18.3,79,30.21,10.0,West,3.5,-,N/A,,Clear,270,2013-04-02 11:35:00
7:55 AM,24.1,19.0,81,30.22,10.0,West,4.6,-,N/A,,Clear,280,2013-04-02 11:55:00
8:15 AM,25.0,19.4,79,30.22,10.0,WNW,5.8,-,N/A,,Clear,290,2013-04-02 12:15:00
8:35 AM,26.2,19.2,75,30.24,10.0,WNW,4.6,-,N/A,,Clear,300,2013-04-02 12:35:00
8:55 AM,27.3,19.4,72,30.25,10.0,WNW,6.9,-,N/A,,Clear,290,2013-04-02 12:55:00
9:15 AM,28.6,19.6,69,30.25,10.0,NW,5.8,-,N/A,,Clear,310,2013-04-02 13:15:00
9:35 AM,29.7,19.9,67,30.25,10.0,WNW,6.9,-,N/A,,Clear,300,2013-04-02 13:35:00
9:55 AM,30.9,20.1,64,30.25,10.0,WNW,8.1,-,N/A,,Clear,300,2013-04-02 13:55:00
10:35 AM,32.2,18.9,58,30.26,10.0,NNW,8.1,-,N/A,,Clear,340,2013-04-02 14:35:00
10:55 AM,32.7,17.4,53,30.26,10.0,NNW,6.9,-,N/A,,Clear,330,2013-04-02 14:55:00
11:15 AM,33.1,15.6,49,30.27,10.0,NNW,5.8,-,N/A,,Scattered Clouds,340,2013-04-02 15:15:00
11:35 AM,33.6,15.6,48,30.27,10.0,West,6.9,-,N/A,,Scattered Clouds,280,2013-04-02 15:35:00
11:55 AM,34.5,15.6,46,30.27,10.0,WNW,4.6,-,N/A,,Scattered Clouds,300,2013-04-02 15:55:00
12:15 PM,34.7,14.9,44,30.27,10.0,WNW,10.4,-,N/A,,Scattered Clouds,290,2013-04-02 16:15:00
12:35 PM,35.4,15.3,44,30.26,10.0,WNW,12.7,17.3,N/A,,Scattered Clouds,300,2013-04-02 16:35:00
12:55 PM,36.0,14.7,42,30.26,10.0,WNW,5.8,17.3,N/A,,Mostly Cloudy,290,2013-04-02 16:55:00
1:15 PM,36.7,15.4,42,30.25,10.0,West,12.7,19.6,N/A,,Scattered Clouds,280,2013-04-02 17:15:00
1:35 PM,37.4,14.9,40,30.24,10.0,NW,10.4,17.3,N/A,,Scattered Clouds,310,2013-04-02 17:35:00
1:55 PM,37.8,15.3,40,30.24,10.0,WNW,9.2,20.7,N/A,,Scattered Clouds,290,2013-04-02 17:55:00
2:15 PM,38.1,14.7,39,30.24,10.0,North,3.5,19.6,N/A,,Scattered Clouds,360,2013-04-02 18:15:00
2:35 PM,38.7,16.0,40,30.23,10.0,WNW,11.5,19.6,N/A,,Scattered Clouds,290,2013-04-02 18:35:00
2:55 PM,39.6,14.9,37,30.22,10.0,NW,11.5,18.4,N/A,,Scattered Clouds,320,2013-04-02 18:55:00
3:15 PM,39.9,15.6,37,30.22,10.0,WNW,10.4,21.9,N/A,,Scattered Clouds,300,2013-04-02 19:15:00
3:35 PM,40.5,16.0,37,30.21,10.0,NW,8.1,23.0,N/A,,Scattered Clouds,320,2013-04-02 19:35:00
3:55 PM,40.6,15.1,35,30.21,10.0,WNW,17.3,-,N/A,,Scattered Clouds,290,2013-04-02 19:55:00
4:15 PM,41.0,14.7,34,30.20,10.0,West,13.8,20.7,N/A,,Scattered Clouds,270,2013-04-02 20:15:00
4:35 PM,41.5,14.2,33,30.20,10.0,WNW,15.0,23.0,N/A,,Scattered Clouds,300,2013-04-02 20:35:00
4:55 PM,41.7,13.6,32,30.20,10.0,NW,15.0,-,N/A,,Clear,310,2013-04-02 20:55:00
5:15 PM,41.7,12.9,31,30.20,10.0,NW,12.7,18.4,N/A,,Clear,310,2013-04-02 21:15:00
5:35 PM,41.9,12.7,31,30.20,10.0,West,10.4,17.3,N/A,,Scattered Clouds,280,2013-04-02 21:35:00
5:55 PM,41.5,12.7,31,30.20,10.0,WNW,12.7,-,N/A,,Scattered Clouds,300,2013-04-02 21:55:00
6:15 PM,41.4,12.6,31,30.20,10.0,WNW,11.5,19.6,N/A,,Clear,290,2013-04-02 22:15:00
6:35 PM,42.3,12.2,29,30.20,10.0,West,16.1,19.6,N/A,,Scattered Clouds,280,2013-04-02 22:35:00
6:55 PM,41.4,10.8,29,30.21,10.0,WNW,12.7,-,N/A,,Scattered Clouds,290,2013-04-02 22:55:00
7:15 PM,40.3,11.1,30,30.21,10.0,WNW,9.2,-,N/A,,Scattered Clouds,300,2013-04-02 23:15:00
7:35 PM,40.1,12.0,32,30.21,10.0,WNW,11.5,-,N/A,,Mostly Cloudy,290,2013-04-02 23:35:00
7:55 PM,39.9,13.5,34,30.21,10.0,WNW,9.2,-,N/A,,Mostly Cloudy,290,2013-04-02 23:55:00
8:15 PM,38.8,14.2,37,30.21,10.0,WNW,6.9,-,N/A,,Mostly Cloudy,300,2013-04-03 00:15:00
8:35 PM,37.9,14.2,38,30.22,10.0,NNE,8.1,16.1,N/A,,Mostly Cloudy,20,2013-04-03 00:35:00
8:55 PM,36.3,14.7,41,30.23,10.0,NNE,6.9,-,N/A,,Scattered Clouds,20,2013-04-03 00:55:00
9:15 PM,35.1,15.1,44,30.24,10.0,NNE,5.8,-,N/A,,Clear,20,2013-04-03 01:15:00
9:35 PM,34.2,14.9,45,30.24,10.0,NNE,6.9,-,N/A,,Clear,20,2013-04-03 01:35:00
9:55 PM,34.0,12.9,42,30.25,10.0,NNE,5.8,-,N/A,,Clear,30,2013-04-03 01:55:00
10:15 PM,33.4,12.9,43,30.26,10.0,NNE,3.5,-,N/A,,Clear,30,2013-04-03 02:15:00
10:35 PM,32.2,14.5,48,30.27,10.0,NNE,3.5,-,N/A,,Clear,30,2013-04-03 02:35:00
10:55 PM,32.0,13.1,46,30.28,10.0,Calm,Calm,-,N/A,,Clear,0,2013-04-03 02:55:00
11:15 PM,31.5,14.0,49,30.28,10.0,Calm,Calm,-,N/A,,Clear,0,2013-04-03 03:15:00
11:35 PM,31.1,14.2,50,30.28,10.0,Calm,Calm,-,N/A,,Clear,0,2013-04-03 03:35:00
11:55 PM,31.1,13.8,49,30.28,10.0,Calm,Calm,-,N/A,,Clear,0,2013-04-03 03:55:00